Location: Claremont
(33.9858°S, 18.4575°E)
Time: 11:40:02
(UTC+00:00)

OAO 2 Rocket - Pass Details

Date: 03 March 2021
Orbit: 676 x 745 km, 35.0° (Epoch: 09 April)

Event Time Altitude Azimuth Distance (km) Brightness Sun altitude
Rises 19:26:54 0° 301° (WNW) 3,166 7.1 -25.8°
Reaches altitude 10° 19:29:23 10° 306° (NW) 2,252 6.2 -26.2°
Enters shadow 19:32:51 38° 328° (NNW) 1,136 4.3 -26.9°
